Amateur Radio Satellites - All Passes

Search period start: 20 May 2013 12:43
Search period end: 21 May 2013 12:43
Location: Riverton, 43.0250°N, 108.3790°W

Satellite Date Start Highest point End Downlink Frequencies (MHz)
Time Altitude Azimuth
HO-68 20 May 12:53:08 12:58:00 20° 306° (NW) 13:02:52 435.675 MHz FM
JAS-2 20 May 12:55:47 13:00:44 21° 305° (NW) 13:05:21 435.800 - 435.900 CW/SSB, 435.910 FM
Uribyol 2 20 May 13:08:43 13:12:31 21° 62° (ENE) 13:16:20 436.500 FM
Oscar 19 20 May 13:16:32 13:20:52 27° 65° (ENE) 13:25:12 437.125 CW, 437.150 USB
UOSAT-12 20 May 13:38:40 13:42:56 40° 311° (NW) 13:47:15 437.025 FM, 437.400 FM
AO-Echo 20 May 13:42:50 13:44:57 13° 60° (ENE) 13:47:03 ?
Oscar 16 20 May 13:54:23 13:59:32 69° 73° (ENE) 14:04:44 437.025 USB, Beacon 2401.1428
AO-27 20 May 13:57:34 14:02:36 55° 71° (ENE) 14:07:40 436.795 MHz FM
ITAMSAT 1 20 May 14:04:48 14:09:53 62° 72° (ENE) 14:15:01 435.822 SSB
Gurwin Techsat 1B 20 May 14:13:02 14:13:29 10° 55° (NE) 14:13:55 435.225 FM
Saudisat 1A 20 May 14:33:57 14:37:50 26° 44° (NE) 14:41:39 436.775 MHz
Uribyol 2 20 May 14:46:34 14:51:37 54° 260° (W) 14:56:43 436.500 FM
Oscar 19 20 May 14:55:10 15:00:02 40° 262° (W) 15:04:56 437.125 CW, 437.150 USB
Uosat F 20 May 15:09:05 15:13:41 38° 68° (ENE) 15:18:18 435.120 FM
AO-Echo 20 May 15:18:14 15:23:08 81° 257° (WSW) 15:27:56 ?
AO-7 20 May 15:20:32 15:26:27 22° 50° (NE) 15:32:23 29.400 - 29.500 MHz
TMSAT-1 20 May 15:27:41 15:32:18 32° 66° (ENE) 15:36:56 436.925 FM
Oscar 16 20 May 15:36:27 15:39:24 15° 270° (W) 15:42:23 437.025 USB, Beacon 2401.1428
AO-27 20 May 15:38:50 15:42:28 19° 268° (W) 15:46:08 436.795 MHz FM
ITAMSAT 1 20 May 15:46:34 15:49:50 17° 269° (W) 15:53:07 435.822 SSB
Gurwin Techsat 1B 20 May 15:47:13 15:52:28 69° 73° (ENE) 15:57:46 435.225 FM
PCSat 20 May 15:49:12 15:52:35 16° 38° (NE) 15:55:58 145.825 MHz
Saudisat 1A 20 May 16:13:24 16:17:42 42° 243° (WSW) 16:21:54 436.775 MHz
Sapphire 20 May 16:21:30 16:25:56 25° 45° (NE) 16:30:20 437.095 MHz 1200 baud AX-25 AFSK
RS-15 20 May 16:40:33 16:51:47 48° 110° (ESE) 17:02:34 29.354 - 29.394 USB, Beacon 29.352 USB
Uosat F 20 May 16:48:26 16:52:35 26° 265° (W) 16:56:45 435.120 FM
TMSAT-1 20 May 17:07:21 17:12:09 35° 264° (W) 17:16:59 436.925 FM
AO-7 20 May 17:09:51 17:18:09 87° 71° (ENE) 17:26:32 29.400 - 29.500 MHz
SO-50 20 May 17:12:37 17:16:01 20° 40° (NE) 17:19:21 436.795 FM
Gurwin Techsat 1B 20 May 17:29:50 17:32:57 16° 270° (W) 17:36:05 435.225 FM
PCSat 20 May 17:31:27 17:36:55 80° 59° (ENE) 17:42:20 145.825 MHz
JAS-1B 20 May 17:55:14 17:59:43 15° 53° (NE) 18:03:52 435.800 - 435.900 CW/SSB
Sapphire 20 May 18:04:25 18:09:45 60° 244° (WSW) 18:15:04 437.095 MHz 1200 baud AX-25 AFSK
Hamsat 20 May 18:15:17 18:17:36 15° 63° (ENE) 18:19:56 145.90 MHz
RS-15 20 May 18:52:14 19:04:01 59° 313° (NW) 19:15:20 29.354 - 29.394 USB, Beacon 29.352 USB
SO-50 20 May 18:52:33 18:57:04 64° 239° (WSW) 19:01:29 436.795 FM
AO-7 20 May 19:06:17 19:11:56 20° 270° (W) 19:17:38 29.400 - 29.500 MHz
PCSat 20 May 19:16:44 19:19:37 15° 257° (WSW) 19:22:31 145.825 MHz
STRAND 1 20 May 19:36:12 19:41:20 67° 102° (ESE) 19:46:26 ?
JAS-1B 20 May 19:39:54 19:49:04 64° 70° (ENE) 19:56:55 435.800 - 435.900 CW/SSB
JAS-2 20 May 19:43:29 19:44:32 10° 46° (NE) 19:45:34 435.800 - 435.900 CW/SSB, 435.910 FM
Hamsat 20 May 19:49:07 19:53:14 54° 260° (W) 19:57:25 145.90 MHz
HO-68 20 May 19:49:34 19:53:34 16° 51° (NE) 19:57:34 435.675 MHz FM
SO-67 20 May 20:18:42 20:22:16 70° 259° (W) 20:25:51 435.3500 MHz FM
UOSAT-12 20 May 20:27:23 20:31:31 31° 46° (NE) 20:35:38 437.025 FM, 437.400 FM
RS-15 20 May 21:10:09 21:19:33 27° 343° (NNW) 21:28:40 29.354 - 29.394 USB, Beacon 29.352 USB
STRAND 1 20 May 21:16:45 21:19:59 17° 300° (WNW) 21:23:14 ?
JAS-2 20 May 21:20:25 21:27:38 46° 66° (ENE) 21:34:59 435.800 - 435.900 CW/SSB, 435.910 FM
JAS-1B 20 May 21:31:48 21:39:50 32° 265° (W) 21:47:00 435.800 - 435.900 CW/SSB
HO-68 20 May 21:33:00 21:40:06 74° 70° (ENE) 21:47:14 435.675 MHz FM
Oscar 11 20 May 21:41:29 21:45:29 39° 70° (ENE) 21:49:31 145.825 FM, Beacon 2401.500 USB
OPAL 20 May 22:04:33 22:09:29 45° 67° (ENE) 22:14:24 ?
UOSAT-12 20 May 22:07:32 22:11:43 35° 244° (WSW) 22:15:52 437.025 FM, 437.400 FM
JAS-2 20 May 23:05:24 23:12:35 43° 264° (W) 23:20:00 435.800 - 435.900 CW/SSB, 435.910 FM
Oscar 11 20 May 23:18:44 23:21:52 20° 267° (W) 23:25:01 145.825 FM, Beacon 2401.500 USB
KITSAT 1 20 May 23:20:50 23:28:18 44° 111° (ESE) 23:35:48 435.175 FM
HO-68 20 May 23:23:17 23:28:26 21° 269° (W) 23:33:38 435.675 MHz FM
RS-15 20 May 23:27:38 23:36:58 28° 19° (NNE) 23:45:59 29.354 - 29.394 USB, Beacon 29.352 USB
OPAL 20 May 23:44:24 23:48:33 24° 264° (W) 23:52:42 ?
KITSAT 1 21 May 01:15:52 01:23:37 49° 311° (NW) 01:31:28 435.175 FM
MaSat-1 21 May 01:20:36 01:24:57 18° 103° (ESE) 01:28:54 437.345 MHz
RS-15 21 May 01:40:57 01:52:06 65° 49° (NE) 02:02:53 29.354 - 29.394 USB, Beacon 29.352 USB
Oscar 16 21 May 02:06:03 02:10:07 23° 93° (E) 02:14:07 437.025 USB, Beacon 2401.1428
AO-27 21 May 02:10:44 02:14:19 18° 92° (E) 02:17:53 436.795 MHz FM
ITAMSAT 1 21 May 02:17:39 02:21:33 21° 93° (E) 02:25:25 435.822 SSB
ISS 21 May 02:54:07 02:55:31 12° 130° (SE) 02:56:56 145.800 FM
Uribyol 2 21 May 02:58:20 03:03:27 51° 100° (E) 03:08:32 436.500 FM
MaSat-1 21 May 02:59:33 03:06:44 89° 295° (WNW) 03:12:37 437.345 MHz
Oscar 19 21 May 03:05:32 03:10:43 69° 102° (ESE) 03:15:50 437.125 CW, 437.150 USB
KITSAT 1 21 May 03:16:09 03:21:19 18° 338° (NNW) 03:26:30 435.175 FM
Uosat F 21 May 03:18:54 03:19:43 10° 88° (E) 03:20:31 435.120 FM
AO-Echo 21 May 03:24:50 03:28:58 29° 96° (E) 03:33:08 ?
Oscar 16 21 May 03:44:45 03:49:42 46° 290° (WNW) 03:54:36 437.025 USB, Beacon 2401.1428
TMSAT-1 21 May 03:44:58 03:46:18 11° 87° (E) 03:47:39 436.925 FM
AO-27 21 May 03:49:05 03:54:13 58° 288° (WNW) 03:59:19 436.795 MHz FM
RS-15 21 May 03:54:02 04:03:47 38° 253° (WSW) 04:13:24 29.354 - 29.394 USB, Beacon 29.352 USB
ITAMSAT 1 21 May 03:56:17 04:01:20 51° 289° (WNW) 04:06:22 435.822 SSB
Gurwin Techsat 1B 21 May 04:03:07 04:07:31 26° 94° (E) 04:11:53 435.225 FM
ISS 21 May 04:28:27 04:31:46 86° 327° (NNW) 04:35:07 145.800 FM
Uribyol 2 21 May 04:38:37 04:42:35 22° 297° (WNW) 04:46:32 436.500 FM
MaSat-1 21 May 04:44:49 04:49:25 19° 311° (NW) 04:53:27 437.345 MHz
Oscar 19 21 May 04:46:17 04:49:30 17° 300° (WNW) 04:52:42 437.125 CW, 437.150 USB
Uosat F 21 May 04:54:09 04:59:12 90° 105° (ESE) 05:04:15 435.120 FM
AO-Echo 21 May 05:03:36 05:07:45 31° 292° (WNW) 05:11:57 ?
AO-7 21 May 05:11:08 05:18:02 28° 94° (E) 05:24:53 29.400 - 29.500 MHz
KITSAT 1 21 May 05:16:51 05:20:45 14° 9° (N) 05:24:39 435.175 FM
STRAND 1 21 May 05:17:01 05:19:47 15° 59° (ENE) 05:22:33 ?
TMSAT-1 21 May 05:21:38 05:26:59 88° 104° (ESE) 05:32:18 436.925 FM
Gurwin Techsat 1B 21 May 05:42:39 05:47:38 42° 291° (WNW) 05:52:37 435.225 FM
ISS 21 May 06:06:05 06:08:50 23° 346° (NNW) 06:11:37 145.800 FM
Saudisat 1A 21 May 06:21:15 06:25:32 41° 117° (ESE) 06:29:51 436.775 MHz
Uosat F 21 May 06:35:11 06:37:16 13° 302° (WNW) 06:39:22 435.120 FM
STRAND 1 21 May 06:53:15 06:58:20 78° 257° (WSW) 07:03:28 ?
AO-7 21 May 07:03:07 07:11:24 68° 293° (WNW) 07:19:40 29.400 - 29.500 MHz
TMSAT-1 21 May 07:03:34 07:06:10 14° 302° (WNW) 07:08:47 436.925 FM
Sapphire 21 May 07:06:31 07:09:32 15° 104° (ESE) 07:12:33 437.095 MHz 1200 baud AX-25 AFSK
KITSAT 1 21 May 07:12:29 07:19:25 29° 38° (NE) 07:26:19 435.175 FM
Hamsat 21 May 07:35:03 07:38:40 25° 94° (E) 07:42:17 145.90 MHz
ISS 21 May 07:43:52 07:46:23 19° 6° (N) 07:48:53 145.800 FM
Saudisat 1A 21 May 08:01:24 08:05:21 28° 316° (NW) 08:09:21 436.775 MHz
PCSat 21 May 08:14:03 08:19:22 62° 116° (ESE) 08:24:44 145.825 MHz
Sapphire 21 May 08:46:52 08:52:16 77° 301° (WNW) 08:57:43 437.095 MHz 1200 baud AX-25 AFSK
AO-7 21 May 08:57:47 09:02:43 17° 314° (NW) 09:07:39 29.400 - 29.500 MHz
HO-68 21 May 09:03:16 09:05:24 11° 86° (E) 09:07:32 435.675 MHz FM
KITSAT 1 21 May 09:07:36 09:15:46 83° 241° (WSW) 09:23:53 435.175 FM
SO-50 21 May 09:08:47 09:13:07 34° 116° (ESE) 09:17:24 436.795 FM
Hamsat 21 May 09:10:55 09:14:44 31° 291° (WNW) 09:18:34 145.90 MHz
JAS-1B 21 May 09:16:10 09:22:24 85° 105° (ESE) 09:28:04 435.800 - 435.900 CW/SSB
SO-67 21 May 09:18:02 09:21:35 59° 285° (WNW) 09:25:06 435.3500 MHz FM
ISS 21 May 09:20:28 09:23:42 43° 26° (NNE) 09:26:56 145.800 FM
PCSat 21 May 09:58:53 10:03:14 24° 315° (NW) 10:07:37 145.825 MHz
JAS-2 21 May 10:15:11 10:21:22 33° 92° (E) 10:26:54 435.800 - 435.900 CW/SSB, 435.910 FM
Sapphire 21 May 10:33:21 10:36:38 16° 322° (NW) 10:39:55 437.095 MHz 1200 baud AX-25 AFSK
HO-68 21 May 10:47:08 10:54:19 71° 104° (ESE) 11:01:27 435.675 MHz FM
SO-50 21 May 10:49:24 10:53:45 34° 313° (NW) 10:58:03 436.795 FM
ISS 21 May 10:57:22 11:00:19 28° 223° (SW) 11:03:15 145.800 FM
Oscar 11 21 May 11:04:17 11:08:39 71° 102° (ESE) 11:13:00 145.825 FM, Beacon 2401.500 USB
KITSAT 1 21 May 11:05:08 11:09:56 17° 260° (W) 11:14:45 435.175 FM
JAS-1B 21 May 11:08:43 11:12:03 15° 307° (NW) 11:15:15 435.800 - 435.900 CW/SSB
MaSat-1 21 May 11:45:04 11:48:22 35° 56° (NE) 11:51:03 437.345 MHz
OPAL 21 May 11:52:12 11:57:16 84° 106° (ESE) 12:02:13 ?
JAS-2 21 May 11:59:55 12:06:36 46° 294° (WNW) 12:12:32 435.800 - 435.900 CW/SSB, 435.910 FM
UOSAT-12 21 May 12:19:24 12:23:48 56° 119° (ESE) 12:28:16 437.025 FM, 437.400 FM

Developed and maintained by Chris Peat, Heavens-Above GmbH. Please read the updated FAQ before sending e-mail. Imprint. DLR
